| time (UTC) | temp F | wind direction | speed knots | gust knots | rain 1hr in | rain 24hr in | rain mn in | humidity % | barometer mb |
| 20260507180245 | 64 | 250 | 9.6 | 18.2 | 0.00 | 0.00 | 0.00 | 48 | 1015.7 |
| 20260507180156 | 64 | 248 | 8.7 | 18.2 | 0.00 | 0.00 | 0.00 | 47 | 1016.0 |
| 20260507175434 | 64 | 249 | 8.7 | 15.6 | 0.00 | 0.00 | 0.00 | 51 | 1016.1 |
| 20260507174713 | 64 | 241 | 8.7 | 17.4 | 0.00 | 0.00 | 0.00 | 48 | 1016.1 |
| 20260507174147 | 64 | 189 | 8.7 | 15.6 | 0.00 | 0.00 | 0.00 | 51 | 1016.2 |
| 20260507173644 | 63 | 225 | 9.6 | 20.9 | 0.00 | 0.00 | 0.00 | 51 | 1016.4 |
| 20260507173139 | 63 | 250 | 10.4 | 19.1 | 0.00 | 0.00 | 0.00 | 50 | 1016.5 |
| 20260507172640 | 63 | 231 | 10.4 | 19.1 | 0.00 | 0.00 | 0.00 | 50 | 1016.6 |
| 20260507172113 | 62 | 239 | 10.4 | 20.0 | 0.00 | 0.00 | 0.00 | 53 | 1016.8 |
| 20260507171545 | 62 | 224 | 10.4 | 20.0 | 0.00 | 0.00 | 0.00 | 51 | 1016.9 |
| 20260507171043 | 62 | 247 | 10.4 | 20.0 | 0.00 | 0.00 | 0.00 | 52 | 1016.9 |
| 20260507170515 | 62 | 229 | 11.3 | 20.0 | 0.00 | 0.00 | 0.00 | 53 | 1017.1 |
| 20260507170013 | 62 | 219 | 11.3 | 20.0 | 0.00 | 0.00 | 0.00 | 53 | 1017.1 |
| 20260507165447 | 62 | 246 | 10.4 | 20.0 | 0.00 | 0.00 | 0.00 | 54 | 1017.4 |
| 20260507164921 | 61 | 225 | 11.3 | 18.2 | 0.00 | 0.00 | 0.00 | 56 | 1017.3 |
| 20260507164353 | 61 | 232 | 10.4 | 18.2 | 0.00 | 0.00 | 0.00 | 56 | 1017.3 |
| 20260507164106 | 61 | 195 | 9.6 | 17.4 | 0.00 | 0.00 | 0.00 | 56 | 1017.4 |
| 20260507163323 | 61 | 233 | 11.3 | 20.9 | 0.00 | 0.00 | 0.00 | 57 | 1017.4 |
| 20260507162757 | 60 | 281 | 12.2 | 20.9 | 0.00 | 0.00 | 0.00 | 57 | 1017.4 |
| 20260507162232 | 60 | 221 | 8.7 | 17.4 | 0.00 | 0.00 | 0.00 | 57 | 1017.5 |
| 20260507161707 | 61 | 229 | 9.6 | 17.4 | 0.00 | 0.00 | 0.00 | 58 | 1017.4 |
| 20260507161140 | 60 | 229 | 11.3 | 19.1 | 0.00 | 0.00 | 0.00 | 58 | 1017.5 |
| 20260507160614 | 60 | 210 | 9.6 | 19.1 | 0.00 | 0.00 | 0.00 | 58 | 1017.5 |
| 20260507160048 | 59 | 269 | 10.4 | 18.2 | 0.00 | 0.00 | 0.00 | 60 | 1017.7 |
| 20260507155809 | 59 | 231 | 11.3 | 18.2 | 0.00 | 0.00 | 0.00 | 61 | 1017.7 |
| 20260507155044 | 58 | 265 | 11.3 | 19.1 | 0.00 | 0.00 | 0.00 | 61 | 1017.8 |
| 20260507154515 | 58 | 246 | 11.3 | 19.1 | 0.00 | 0.00 | 0.00 | 61 | 1017.8 |
| 20260507154013 | 58 | 220 | 11.3 | 20.0 | 0.00 | 0.00 | 0.00 | 62 | 1017.9 |
| 20260507153512 | 58 | 243 | 9.6 | 20.0 | 0.00 | 0.00 | 0.00 | 62 | 1018.0 |
| 20260507152959 | 58 | 223 | 9.6 | 19.1 | 0.00 | 0.00 | 0.00 | 62 | 1018.0 |
| 20260507152459 | 58 | 205 | 9.6 | 19.1 | 0.00 | 0.00 | 0.00 | 62 | 1018.1 |
| 20260507151932 | 58 | 227 | 7.8 | 15.6 | 0.00 | 0.00 | 0.00 | 62 | 1018.2 |
| 20260507151432 | 58 | 223 | 7.0 | 13.9 | 0.00 | 0.00 | 0.00 | 66 | 1018.2 |
| 20260507150919 | 57 | 240 | 7.8 | 13.9 | 0.00 | 0.00 | 0.00 | 66 | 1018.2 |
| 20260507150419 | 57 | 250 | 7.8 | 13.9 | 0.00 | 0.00 | 0.00 | 65 | 1018.2 |
| 20260507145854 | 57 | 258 | 7.0 | 13.9 | 0.00 | 0.00 | 0.00 | 66 | 1018.3 |
| 20260507145612 | 56 | 261 | 7.0 | 13.9 | 0.00 | 0.00 | 0.00 | 66 | 1018.4 |
| 20260507144849 | 56 | 231 | 7.8 | 15.6 | 0.00 | 0.00 | 0.00 | 67 | 1018.4 |
| 20260507144345 | 56 | 267 | 9.6 | 15.6 | 0.00 | 0.00 | 0.00 | 66 | 1018.5 |
| 20260507143844 | 56 | 263 | 7.8 | 14.8 | 0.00 | 0.00 | 0.00 | 68 | 1018.5 |
| 20260507143317 | 56 | 264 | 6.1 | 12.2 | 0.00 | 0.00 | 0.00 | 68 | 1018.5 |
| 20260507142749 | 55 | 266 | 5.2 | 12.2 | 0.00 | 0.00 | 0.00 | 70 | 1018.6 |
| 20260507142510 | 55 | 227 | 5.2 | 12.2 | 0.00 | 0.00 | 0.00 | 71 | 1018.5 |
| 20260507141746 | 54 | 215 | 6.1 | 12.2 | 0.00 | 0.00 | 0.00 | 73 | 1018.6 |
| 20260507141218 | 54 | 252 | 3.5 | 12.2 | 0.00 | 0.00 | 0.00 | 72 | 1018.6 |
| 20260507140936 | 53 | 229 | 1.7 | 6.1 | 0.00 | 0.00 | 0.00 | 75 | 1018.7 |
| 20260507140213 | 53 | 259 | 0.9 | 4.3 | 0.00 | 0.00 | 0.00 | 77 | 1018.7 |
| 20260507135645 | 53 | 238 | 0.9 | 3.5 | 0.00 | 0.00 | 0.00 | 78 | 1018.8 |
| 20260507135142 | 52 | 213 | 0.9 | 4.3 | 0.00 | 0.00 | 0.00 | 79 | 1018.8 |
| 20260507134614 | 52 | 249 | 0.9 | 6.1 | 0.00 | 0.00 | 0.00 | 80 | 1018.8 |
| 20260507134048 | 51 | 239 | 0.9 | 6.1 | 0.00 | 0.00 | 0.00 | 81 | 1018.8 |
| 20260507133548 | 51 | 235 | 0.9 | 1.7 | 0.00 | 0.00 | 0.00 | 82 | 1018.9 |
| 20260507133043 | 50 | 238 | 0.9 | 1.7 | 0.00 | 0.00 | 0.00 | 82 | 1018.9 |
| 20260507132544 | 50 | 246 | 0.9 | 4.3 | 0.00 | 0.00 | 0.00 | 83 | 1019.0 |
| 20260507132015 | 50 | 222 | 0.9 | 4.3 | 0.00 | 0.00 | 0.00 | 83 | 1019.0 |
| 20260507131514 | 49 | 231 | 0.9 | 4.3 | 0.00 | 0.00 | 0.00 | 84 | 1019.0 |
| 20260507131209 | 49 | 234 | 0.9 | 4.3 | 0.00 | 0.00 | 0.00 | 84 | 1018.9 |
| 20260507130443 | 48 | 213 | 0.9 | 1.7 | 0.00 | 0.00 | 0.00 | 85 | 1019.0 |
| 20260507125941 | 48 | 218 | 0.9 | 1.7 | 0.00 | 0.00 | 0.00 | 85 | 1019.0 |
| 20260507125417 | 48 | 214 | 0.9 | 1.7 | 0.00 | 0.00 | 0.00 | 85 | 1019.0 |
| 20260507124917 | 47 | 221 | 0.9 | 1.7 | 0.00 | 0.00 | 0.00 | 86 | 1019.0 |
| 20260507124417 | 47 | 217 | 0.9 | 0.9 | 0.00 | 0.00 | 0.00 | 86 | 1018.9 |
| 20260507123900 | 47 | 223 | 0.9 | 3.5 | 0.00 | 0.00 | 0.00 | 86 | 1018.8 |
| 20260507123402 | 47 | 221 | 0.9 | 3.5 | 0.00 | 0.00 | 0.00 | 86 | 1018.8 |
| 20260507122838 | 47 | 212 | 0.0 | 0.9 | 0.00 | 0.00 | 0.00 | 86 | 1018.9 |
| 20260507122329 | 46 | 213 | 0.0 | 0.9 | 0.00 | 0.00 | 0.00 | 86 | 1019.0 |
| 20260507121827 | 46 | 221 | 0.0 | 0.9 | 0.00 | 0.00 | 0.00 | 86 | 1019.0 |
| 20260507121325 | 46 | 221 | 0.0 | 0.9 | 0.00 | 0.00 | 0.00 | 86 | 1018.9 |
| 20260507120823 | 46 | 221 | 0.0 | 1.7 | 0.00 | 0.00 | 0.00 | 86 | 1018.9 |
| 20260507120326 | 46 | 221 | 0.0 | 1.7 | 0.00 | 0.00 | 0.00 | 86 | 1018.8 |
| 20260507115803 | 46 | 221 | 0.0 | 1.7 | 0.00 | 0.00 | 0.00 | 86 | 1018.7 |
| 20260507115246 | 46 | 221 | 0.0 | 1.7 | 0.00 | 0.00 | 0.00 | 86 | 1018.7 |
| 20260507114748 | 46 | 217 | 0.0 | 1.7 | 0.00 | 0.00 | 0.00 | 86 | 1018.6 |
| 20260507114229 | 46 | 232 | 0.9 | 1.7 | 0.00 | 0.00 | 0.00 | 86 | 1018.5 |
| 20260507113725 | 46 | 230 | 0.9 | 1.7 | 0.00 | 0.00 | 0.00 | 86 | 1018.5 |
| 20260507113443 | 46 | 230 | 0.9 | 1.7 | 0.00 | 0.00 | 0.00 | 85 | 1018.5 |
| 20260507112722 | 46 | 230 | 0.9 | 2.6 | 0.00 | 0.00 | 0.00 | 85 | 1018.6 |
| 20260507112223 | 46 | 230 | 1.7 | 2.6 | 0.00 | 0.00 | 0.00 | 85 | 1018.6 |
| 20260507111719 | 46 | 230 | 0.9 | 2.6 | 0.00 | 0.00 | 0.00 | 85 | 1018.5 |
| 20260507111220 | 46 | 230 | 0.9 | 1.7 | 0.00 | 0.00 | 0.00 | 85 | 1018.4 |
| 20260507110655 | 46 | 230 | 0.9 | 1.7 | 0.00 | 0.00 | 0.00 | 84 | 1018.4 |
| 20260507110131 | 46 | 230 | 0.9 | 1.7 | 0.00 | 0.00 | 0.00 | 84 | 1018.5 |
| 20260507105626 | 46 | 230 | 0.0 | 1.7 | 0.00 | 0.00 | 0.00 | 84 | 1018.5 |
| 20260507105125 | 46 | 235 | 0.0 | 1.7 | 0.00 | 0.00 | 0.00 | 84 | 1018.5 |
| 20260507104625 | 46 | 240 | 0.0 | 1.7 | 0.00 | 0.00 | 0.00 | 83 | 1018.5 |
| 20260507104123 | 47 | 244 | 0.0 | 1.7 | 0.00 | 0.00 | 0.00 | 83 | 1018.6 |
| 20260507103623 | 47 | 251 | 0.0 | 1.7 | 0.00 | 0.00 | 0.00 | 82 | 1018.6 |
| 20260507103055 | 47 | 260 | 0.9 | 1.7 | 0.00 | 0.00 | 0.00 | 82 | 1018.6 |
| 20260507102530 | 47 | 267 | 0.9 | 1.7 | 0.00 | 0.00 | 0.00 | 81 | 1018.6 |
| 20260507102003 | 47 | 267 | 0.9 | 1.7 | 0.00 | 0.00 | 0.00 | 81 | 1018.7 |
| 20260507101430 | 47 | 272 | 0.9 | 1.7 | 0.00 | 0.00 | 0.00 | 81 | 1018.7 |
| 20260507100904 | 47 | 263 | 0.9 | 0.9 | 0.00 | 0.00 | 0.00 | 81 | 1018.8 |
| 20260507100339 | 48 | 267 | 0.9 | 0.9 | 0.00 | 0.00 | 0.00 | 81 | 1018.9 |
| 20260507095813 | 48 | 267 | 0.9 | 1.7 | 0.00 | 0.00 | 0.00 | 81 | 1018.9 |
| 20260507095246 | 48 | 278 | 0.9 | 1.7 | 0.00 | 0.00 | 0.00 | 80 | 1019.0 |
| 20260507094943 | 48 | 279 | 0.9 | 1.7 | 0.00 | 0.00 | 0.00 | 80 | 1019.0 |
| 20260507094155 | 48 | 282 | 0.0 | 1.7 | 0.00 | 0.00 | 0.00 | 80 | 1019.0 |
| 20260507093648 | 48 | 269 | 0.0 | 0.9 | 0.00 | 0.00 | 0.00 | 81 | 1019.1 |
| 20260507093147 | 48 | 273 | 0.0 | 0.0 | 0.00 | 0.00 | 0.00 | 80 | 1018.9 |
| 20260507093108 | 49 | 273 | 0.0 | 0.0 | 0.00 | 0.00 | 0.00 | 80 | 1019.0 |
| 20260507092052 | 49 | 273 | 0.0 | 0.0 | 0.00 | 0.00 | 0.00 | 80 | 1018.9 |
| 20260507091550 | 49 | 273 | 0.0 | 0.0 | 0.00 | 0.00 | 0.00 | 80 | 1018.9 |
| 20260507091042 | 49 | 273 | 0.0 | 0.0 | 0.00 | 0.00 | 0.00 | 79 | 1019.0 |
| 20260507090511 | 49 | 273 | 0.0 | 0.0 | 0.00 | 0.00 | 0.00 | 79 | 1018.9 |
| 20260507090231 | 50 | 273 | 0.0 | 0.0 | 0.00 | 0.00 | 0.00 | 78 | 1018.9 |
| 20260507085506 | 50 | 273 | 0.0 | 0.0 | 0.00 | 0.00 | 0.00 | 77 | 1019.0 |
| 20260507085005 | 50 | 273 | 0.0 | 0.0 | 0.00 | 0.00 | 0.00 | 77 | 1019.0 |
| 20260507084439 | 50 | 273 | 0.0 | 0.9 | 0.00 | 0.00 | 0.00 | 77 | 1019.0 |
| 20260507083913 | 50 | 273 | 0.0 | 0.9 | 0.00 | 0.00 | 0.00 | 78 | 1019.1 |
| 20260507083347 | 50 | 273 | 0.0 | 0.9 | 0.00 | 0.01 | 0.00 | 78 | 1019.1 |
| 20260507082821 | 50 | 273 | 0.0 | 0.9 | 0.00 | 0.01 | 0.00 | 79 | 1019.1 |
| 20260507082514 | 49 | 273 | 0.0 | 0.9 | 0.00 | 0.02 | 0.00 | 79 | 1019.3 |
| 20260507081750 | 49 | 273 | 0.0 | 0.9 | 0.00 | 0.02 | 0.00 | 80 | 1019.2 |
| 20260507081222 | 49 | 291 | 0.0 | 0.9 | 0.00 | 0.03 | 0.00 | 80 | 1019.3 |
| 20260507080658 | 49 | 308 | 0.0 | 0.9 | 0.00 | 0.03 | 0.00 | 81 | 1019.3 |
| 20260507080354 | 49 | 318 | 0.9 | 1.7 | 0.00 | 0.03 | 0.00 | 81 | 1019.4 |
| 20260507075627 | 49 | 335 | 0.9 | 1.7 | 0.00 | 0.03 | 0.00 | 81 | 1019.3 |
| 20260507075102 | 49 | 333 | 0.9 | 0.9 | 0.00 | 0.03 | 0.00 | 82 | 1019.3 |
| 20260507074534 | 49 | 336 | 0.9 | 0.9 | 0.00 | 0.03 | 0.00 | 81 | 1019.3 |
| 20260507074032 | 50 | 328 | 0.0 | 0.9 | 0.00 | 0.03 | 0.00 | 81 | 1019.4 |
| 20260507073529 | 50 | 315 | 0.0 | 0.9 | 0.00 | 0.03 | 0.00 | 81 | 1019.4 |
| 20260507073249 | 49 | 303 | 0.0 | 0.9 | 0.00 | 0.03 | 0.00 | 81 | 1019.4 |
| 20260507072725 | 49 | 298 | 0.0 | 0.9 | 0.00 | 0.03 | 0.00 | 82 | 1019.3 |
| 20260507071959 | 49 | 288 | 0.0 | 1.7 | 0.00 | 0.04 | 0.00 | 82 | 1019.5 |
| 20260507071432 | 50 | 273 | 0.0 | 0.9 | 0.00 | 0.04 | 0.00 | 81 | 1019.5 |
| 20260507070904 | 50 | 273 | 0.0 | 1.7 | 0.00 | 0.04 | 0.00 | 81 | 1019.5 |
| 20260507070401 | 50 | 273 | 0.9 | 1.7 | 0.00 | 0.05 | 0.00 | 81 | 1019.6 |
| 20260507065833 | 50 | 265 | 0.9 | 0.9 | 0.00 | 0.05 | 0.00 | 81 | 1019.8 |
| 20260507065309 | 50 | 265 | 0.9 | 1.7 | 0.00 | 0.05 | 0.00 | 81 | 1019.8 |
| 20260507065005 | 50 | 257 | 0.9 | 1.7 | 0.00 | 0.05 | 0.00 | 80 | 1019.7 |
| 20260507064236 | 50 | 229 | 0.9 | 1.7 | 0.00 | 0.05 | 0.00 | 79 | 1019.6 |
| 20260507063707 | 50 | 227 | 0.9 | 1.7 | 0.00 | 0.05 | 0.00 | 78 | 1019.5 |
| 20260507063140 | 50 | 232 | 0.0 | 1.7 | 0.00 | 0.06 | 0.00 | 78 | 1019.5 |
| 20260507062638 | 50 | 230 | 0.9 | 2.6 | 0.00 | 0.06 | 0.00 | 78 | 1019.6 |
| 20260507062137 | 50 | 221 | 0.9 | 2.6 | 0.00 | 0.07 | 0.00 | 79 | 1019.5 |
| 20260507061608 | 50 | 217 | 0.9 | 2.6 | 0.00 | 0.07 | 0.00 | 79 | 1019.4 |
| 20260507061105 | 50 | 213 | 0.9 | 2.6 | 0.00 | 0.07 | 0.00 | 79 | 1019.6 |
| 20260507060541 | 50 | 222 | 0.0 | 1.7 | 0.00 | 0.07 | 0.00 | 80 | 1019.7 |
| 20260507060015 | 50 | 221 | 0.0 | 0.9 | 0.00 | 0.07 | 0.00 | 80 | 1019.8 |
| 20260507055508 | 50 | 221 | 0.0 | 0.9 | 0.00 | 0.07 | 0.00 | 80 | 1019.8 |
| 20260507055006 | 50 | 221 | 0.0 | 0.9 | 0.00 | 0.07 | 0.00 | 80 | 1019.8 |
| 20260507054440 | 50 | 217 | 0.0 | 0.9 | 0.00 | 0.07 | 0.00 | 80 | 1019.8 |
| 20260507053938 | 50 | 217 | 0.0 | 0.9 | 0.00 | 0.07 | 0.00 | 80 | 1019.7 |
| 20260507053410 | 50 | 216 | 0.0 | 0.9 | 0.00 | 0.07 | 0.00 | 81 | 1019.7 |
| 20260507052908 | 50 | 216 | 0.0 | 0.0 | 0.00 | 0.07 | 0.00 | 81 | 1019.7 |
| 20260507052411 | 49 | 216 | 0.0 | 0.0 | 0.00 | 0.07 | 0.00 | 82 | 1019.7 |
| 20260507051847 | 49 | 216 | 0.0 | 0.0 | 0.00 | 0.07 | 0.00 | 82 | 1019.7 |
| 20260507051347 | 49 | 216 | 0.0 | 0.9 | 0.00 | 0.07 | 0.00 | 81 | 1019.6 |
| 20260507050841 | 49 | 216 | 0.0 | 0.9 | 0.00 | 0.07 | 0.00 | 82 | 1019.7 |
| 20260507050341 | 49 | 212 | 0.0 | 1.7 | 0.00 | 0.07 | 0.00 | 81 | 1019.7 |
| 20260507050059 | 50 | 202 | 0.0 | 1.7 | 0.00 | 0.07 | 0.07 | 80 | 1019.7 |
| 20260507045332 | 50 | 198 | 0.0 | 0.9 | 0.00 | 0.07 | 0.07 | 79 | 1019.8 |
| 20260507044807 | 50 | 72 | 0.0 | 0.0 | 0.00 | 0.07 | 0.07 | 79 | 1019.6 |
| 20260507044725 | 50 | 72 | 0.0 | 0.9 | 0.00 | 0.07 | 0.07 | 78 | 1019.5 |
| 20260507043717 | 50 | 72 | 0.0 | 0.9 | 0.00 | 0.07 | 0.07 | 78 | 1019.7 |
| 20260507043151 | 51 | 72 | 0.0 | 0.9 | 0.00 | 0.07 | 0.07 | 77 | 1019.6 |
| 20260507042646 | 51 | 72 | 0.0 | 0.9 | 0.00 | 0.07 | 0.07 | 75 | 1019.7 |
| 20260507042144 | 51 | 72 | 0.0 | 0.0 | 0.00 | 0.07 | 0.07 | 76 | 1019.7 |
| 20260507041620 | 51 | 72 | 0.0 | 0.0 | 0.00 | 0.07 | 0.07 | 74 | 1019.6 |
| 20260507041106 | 51 | 72 | 0.0 | 0.0 | 0.00 | 0.07 | 0.07 | 73 | 1019.7 |
| 20260507040604 | 52 | 72 | 0.0 | 0.0 | 0.00 | 0.07 | 0.07 | 73 | 1019.7 |
| 20260507040107 | 52 | 72 | 0.0 | 0.0 | 0.00 | 0.07 | 0.07 | 73 | 1019.8 |
| 20260507035602 | 52 | 72 | 0.0 | 0.0 | 0.00 | 0.07 | 0.07 | 73 | 1019.8 |
| 20260507035101 | 52 | 72 | 0.0 | 0.9 | 0.00 | 0.07 | 0.07 | 73 | 1019.9 |
| 20260507034532 | 53 | 72 | 0.0 | 0.9 | 0.00 | 0.07 | 0.07 | 72 | 1019.8 |
| 20260507034030 | 53 | 72 | 0.0 | 0.9 | 0.00 | 0.07 | 0.07 | 70 | 1019.8 |
| 20260507033506 | 54 | 49 | 0.0 | 0.9 | 0.00 | 0.07 | 0.07 | 64 | 1019.8 |
| 20260507032937 | 54 | 46 | 0.0 | 0.9 | 0.00 | 0.07 | 0.07 | 63 | 1019.7 |
| 20260507032410 | 54 | 42 | 0.0 | 0.9 | 0.00 | 0.07 | 0.07 | 63 | 1019.8 |
| 20260507031850 | 54 | 36 | 0.0 | 0.9 | 0.00 | 0.07 | 0.07 | 63 | 1019.8 |
| 20260507031350 | 54 | 46 | 0.0 | 0.9 | 0.00 | 0.07 | 0.07 | 63 | 1019.8 |
| 20260507030848 | 54 | 28 | 0.0 | 0.9 | 0.00 | 0.07 | 0.07 | 63 | 1019.7 |
| 20260507030616 | 54 | 42 | 0.0 | 0.9 | 0.00 | 0.07 | 0.07 | 63 | 1019.7 |
| 20260507025820 | 54 | 42 | 0.0 | 0.9 | 0.00 | 0.07 | 0.07 | 63 | 1019.7 |
| 20260507025318 | 54 | 15 | 0.0 | 0.9 | 0.00 | 0.07 | 0.07 | 63 | 1019.7 |
| 20260507025008 | 54 | 10 | 0.0 | 0.9 | 0.00 | 0.07 | 0.07 | 63 | 1019.7 |
| 20260507024250 | 54 | 32 | 0.0 | 0.9 | 0.00 | 0.07 | 0.07 | 62 | 1019.6 |
| 20260507023740 | 54 | 55 | 0.0 | 0.9 | 0.00 | 0.07 | 0.07 | 63 | 1019.4 |
| 20260507023239 | 54 | 32 | 0.0 | 0.9 | 0.00 | 0.07 | 0.07 | 62 | 1019.6 |
| 20260507022710 | 54 | 9 | 0.0 | 0.9 | 0.00 | 0.07 | 0.07 | 61 | 1019.6 |
| 20260507022208 | 54 | 25 | 0.0 | 0.9 | 0.00 | 0.07 | 0.07 | 61 | 1019.5 |
| 20260507021640 | 54 | 30 | 0.0 | 0.9 | 0.00 | 0.07 | 0.07 | 60 | 1019.4 |
| 20260507021134 | 54 | 5 | 0.0 | 0.9 | 0.00 | 0.07 | 0.07 | 60 | 1019.4 |
| 20260507020632 | 55 | 26 | 0.0 | 0.9 | 0.00 | 0.07 | 0.07 | 60 | 1019.1 |
| 20260507020130 | 55 | 17 | 0.0 | 0.9 | 0.00 | 0.07 | 0.07 | 61 | 1019.1 |
| 20260507015626 | 55 | 26 | 0.0 | 0.9 | 0.00 | 0.07 | 0.07 | 61 | 1019.0 |
| 20260507015125 | 55 | 26 | 0.0 | 0.9 | 0.00 | 0.07 | 0.07 | 62 | 1018.8 |
| 20260507014555 | 55 | 36 | 0.0 | 0.9 | 0.00 | 0.07 | 0.07 | 61 | 1018.8 |
| 20260507014055 | 55 | 22 | 0.0 | 0.9 | 0.00 | 0.07 | 0.07 | 61 | 1018.7 |
| 20260507013526 | 56 | 23 | 0.0 | 0.9 | 0.00 | 0.07 | 0.07 | 61 | 1018.6 |
| 20260507013024 | 56 | 22 | 0.0 | 0.9 | 0.00 | 0.07 | 0.07 | 61 | 1018.6 |
| 20260507012456 | 56 | 24 | 0.0 | 0.9 | 0.00 | 0.07 | 0.07 | 60 | 1018.6 |
| 20260507011952 | 56 | 22 | 0.0 | 0.9 | 0.00 | 0.07 | 0.07 | 59 | 1018.5 |
| 20260507011712 | 56 | 26 | 0.0 | 0.9 | 0.00 | 0.07 | 0.07 | 59 | 1018.6 |
| 20260507010924 | 56 | 13 | 0.0 | 0.9 | 0.00 | 0.07 | 0.07 | 58 | 1018.6 |
| 20260507010411 | 56 | 28 | 0.0 | 0.9 | 0.00 | 0.07 | 0.07 | 57 | 1018.6 |
| 20260507005915 | 56 | 44 | 0.0 | 0.9 | 0.00 | 0.07 | 0.07 | 57 | 1018.5 |
| 20260507005347 | 57 | 55 | 0.0 | 0.9 | 0.00 | 0.07 | 0.07 | 56 | 1018.4 |
| 20260507004840 | 57 | 23 | 0.0 | 0.9 | 0.00 | 0.07 | 0.07 | 56 | 1018.4 |
| 20260507004314 | 57 | 0 | 0.0 | 1.7 | 0.00 | 0.07 | 0.07 | 55 | 1018.5 |
| 20260507003812 | 57 | 9 | 0.9 | 1.7 | 0.00 | 0.07 | 0.07 | 55 | 1018.5 |
| 20260507003311 | 57 | 0 | 0.9 | 1.7 | 0.00 | 0.07 | 0.07 | 54 | 1018.4 |
| 20260507002743 | 57 | 355 | 0.9 | 1.7 | 0.00 | 0.07 | 0.07 | 54 | 1018.5 |
| 20260507002244 | 58 | 0 | 0.9 | 2.6 | 0.00 | 0.07 | 0.07 | 53 | 1018.5 |
| 20260507001951 | 58 | 347 | 0.9 | 2.6 | 0.00 | 0.07 | 0.07 | 52 | 1018.4 |
| 20260507001229 | 58 | 336 | 0.9 | 1.7 | 0.00 | 0.07 | 0.07 | 51 | 1018.4 |
| 20260507000726 | 59 | 335 | 0.9 | 7.0 | 0.00 | 0.07 | 0.07 | 51 | 1018.3 |
| 20260507000714 | 59 | 9 | 1.7 | 8.7 | 0.00 | 0.07 | 0.07 | 50 | 1018.2 |
| 20260506235720 | 59 | 51 | 1.7 | 8.7 | 0.00 | 0.07 | 0.07 | 51 | 1018.2 |
| 20260506235215 | 59 | 19 | 2.6 | 8.7 | 0.00 | 0.07 | 0.07 | 50 | 1018.1 |
| 20260506234907 | 58 | 50 | 2.6 | 10.4 | 0.00 | 0.07 | 0.07 | 51 | 1018.2 |
| 20260506234121 | 59 | 34 | 1.7 | 7.0 | 0.00 | 0.07 | 0.07 | 52 | 1018.2 |
| 20260506233618 | 58 | 28 | 1.7 | 8.7 | 0.00 | 0.07 | 0.07 | 52 | 1018.1 |
| 20260506233316 | 58 | 61 | 1.7 | 8.7 | 0.00 | 0.07 | 0.07 | 52 | 1018.2 |
| 20260506232526 | 58 | 13 | 2.6 | 9.6 | 0.00 | 0.07 | 0.07 | 54 | 1018.2 |
| 20260506232002 | 58 | 46 | 3.5 | 9.6 | 0.00 | 0.07 | 0.07 | 52 | 1018.2 |
| 20260506231501 | 58 | 47 | 2.6 | 9.6 | 0.00 | 0.07 | 0.07 | 53 | 1018.2 |
| 20260506230938 | 58 | 30 | 3.5 | 10.4 | 0.00 | 0.07 | 0.07 | 53 | 1018.2 |
| 20260506230437 | 58 | 44 | 2.6 | 10.4 | 0.00 | 0.07 | 0.07 | 51 | 1018.2 |
| 20260506225912 | 59 | 23 | 1.7 | 7.0 | 0.00 | 0.07 | 0.07 | 50 | 1018.1 |
| 20260506225413 | 59 | 346 | 1.7 | 7.8 | 0.00 | 0.07 | 0.07 | 49 | 1018.2 |
| 20260506225109 | 58 | 346 | 1.7 | 7.8 | 0.00 | 0.07 | 0.07 | 50 | 1018.1 |
| 20260506224333 | 58 | 323 | 2.6 | 10.4 | 0.00 | 0.07 | 0.07 | 51 | 1018.0 |
| 20260506223833 | 59 | 57 | 2.6 | 10.4 | 0.00 | 0.07 | 0.07 | 49 | 1017.9 |
| 20260506223331 | 59 | 11 | 1.7 | 7.8 | 0.00 | 0.07 | 0.07 | 50 | 1017.9 |
| 20260506222834 | 58 | 355 | 1.7 | 9.6 | 0.00 | 0.07 | 0.07 | 48 | 1018.0 |
| 20260506222312 | 58 | 36 | 2.6 | 9.6 | 0.00 | 0.07 | 0.07 | 49 | 1018.0 |
| 20260506221812 | 59 | 71 | 3.5 | 9.6 | 0.00 | 0.07 | 0.07 | 48 | 1018.0 |
| 20260506221313 | 59 | 63 | 3.5 | 11.3 | 0.00 | 0.07 | 0.07 | 49 | 1018.1 |
| 20260506220813 | 60 | 55 | 2.6 | 11.3 | 0.00 | 0.07 | 0.07 | 49 | 1018.0 |
| 20260506220519 | 59 | 64 | 2.6 | 11.3 | 0.00 | 0.07 | 0.07 | 48 | 1017.9 |
| 20260506220011 | 59 | 63 | 2.6 | 11.3 | 0.00 | 0.08 | 0.07 | 47 | 1018.0 |
| 20260506215232 | 60 | 0 | 2.6 | 8.7 | 0.00 | 0.09 | 0.07 | 47 | 1018.1 |
| 20260506214727 | 60 | 355 | 2.6 | 7.8 | 0.00 | 0.09 | 0.07 | 48 | 1018.2 |
| 20260506214220 | 60 | 53 | 2.6 | 8.7 | 0.00 | 0.09 | 0.07 | 48 | 1018.1 |
| 20260506213947 | 59 | 11 | 3.5 | 9.6 | 0.00 | 0.09 | 0.07 | 48 | 1018.2 |
| 20260506213157 | 59 | 47 | 3.5 | 10.4 | 0.00 | 0.09 | 0.07 | 48 | 1018.3 |
| 20260506212633 | 59 | 355 | 2.6 | 9.6 | 0.00 | 0.09 | 0.07 | 49 | 1018.3 |
| 20260506212116 | 58 | 92 | 4.3 | 12.2 | 0.00 | 0.09 | 0.07 | 47 | 1018.2 |
| 20260506211605 | 58 | 40 | 4.3 | 12.2 | 0.00 | 0.09 | 0.07 | 48 | 1018.3 |
| 20260506211101 | 58 | 355 | 3.5 | 10.4 | 0.00 | 0.09 | 0.07 | 50 | 1018.4 |
| 20260506210601 | 58 | 112 | 3.5 | 10.4 | 0.00 | 0.09 | 0.07 | 49 | 1018.4 |
| 20260506205545 | 58 | 53 | 5.2 | 13.0 | 0.00 | 0.09 | 0.07 | 46 | 1018.6 |
| 20260506205308 | 59 | 55 | 4.3 | 12.2 | 0.00 | 0.09 | 0.07 | 48 | 1018.7 |
| 20260506204541 | 59 | 26 | 4.3 | 12.2 | 0.00 | 0.09 | 0.07 | 48 | 1018.8 |
| 20260506204259 | 58 | 93 | 5.2 | 10.4 | 0.00 | 0.09 | 0.07 | 51 | 1018.7 |
| 20260506203533 | 58 | 348 | 5.2 | 13.0 | 0.00 | 0.09 | 0.07 | 49 | 1018.8 |
| 20260506203029 | 58 | 63 | 3.5 | 13.0 | 0.00 | 0.09 | 0.07 | 49 | 1018.9 |
| 20260506202504 | 58 | 344 | 3.5 | 12.2 | 0.00 | 0.09 | 0.07 | 50 | 1019.0 |
| 20260506201938 | 58 | 49 | 4.3 | 12.2 | 0.00 | 0.09 | 0.07 | 52 | 1019.1 |
| 20260506201414 | 58 | 84 | 2.6 | 9.6 | 0.00 | 0.09 | 0.07 | 50 | 1019.1 |
| 20260506201132 | 58 | 46 | 2.6 | 8.7 | 0.00 | 0.09 | 0.07 | 51 | 1019.3 |
| 20260506200405 | 57 | 69 | 3.5 | 10.4 | 0.00 | 0.09 | 0.07 | 53 | 1019.3 |
| 20260506195840 | 57 | 71 | 4.3 | 12.2 | 0.00 | 0.09 | 0.07 | 50 | 1019.4 |
| 20260506195335 | 57 | 82 | 3.5 | 12.2 | 0.00 | 0.09 | 0.07 | 50 | 1019.4 |
| 20260506194831 | 56 | 112 | 4.3 | 11.3 | 0.00 | 0.09 | 0.07 | 49 | 1019.4 |
| 20260506194308 | 57 | 68 | 4.3 | 11.3 | 0.00 | 0.09 | 0.07 | 49 | 1019.6 |
| 20260506193739 | 57 | 44 | 5.2 | 12.2 | 0.00 | 0.09 | 0.07 | 51 | 1019.4 |
| 20260506193501 | 57 | 78 | 5.2 | 13.9 | 0.00 | 0.09 | 0.07 | 51 | 1019.4 |
| 20260506192733 | 56 | 96 | 5.2 | 13.9 | 0.00 | 0.09 | 0.07 | 50 | 1019.5 |
| 20260506192208 | 56 | 42 | 7.0 | 13.9 | 0.00 | 0.09 | 0.07 | 49 | 1019.5 |
| 20260506191704 | 56 | 48 | 5.2 | 13.9 | 0.00 | 0.09 | 0.07 | 49 | 1019.5 |
| 20260506191429 | 57 | 80 | 5.2 | 11.3 | 0.00 | 0.09 | 0.07 | 50 | 1019.4 |
| 20260506190658 | 56 | 70 | 4.3 | 11.3 | 0.00 | 0.09 | 0.07 | 50 | 1019.4 |
| 20260506190145 | 56 | 76 | 4.3 | 11.3 | 0.00 | 0.09 | 0.07 | 50 | 1019.4 |
| 20260506185915 | 56 | 20 | 6.1 | 11.3 | 0.00 | 0.09 | 0.07 | 52 | 1019.4 |
| 20260506185143 | 56 | 351 | 6.1 | 13.0 | 0.00 | 0.09 | 0.07 | 51 | 1019.4 |
| 20260506184906 | 56 | 70 | 4.3 | 13.0 | 0.00 | 0.09 | 0.07 | 52 | 1019.6 |
| 20260506184136 | 56 | 9 | 4.3 | 14.8 | 0.00 | 0.09 | 0.07 | 54 | 1019.6 |
| 20260506183607 | 56 | 355 | 4.3 | 14.8 | 0.00 | 0.09 | 0.07 | 51 | 1019.7 |
| 20260506183404 | 56 | 21 | 4.3 | 13.9 | 0.00 | 0.09 | 0.07 | 54 | 1019.6 |
| 20260506182056 | 56 | 59 | 2.6 | 11.3 | 0.00 | 0.09 | 0.07 | 56 | 1019.8 |
| 20260506181553 | 56 | 49 | 3.5 | 13.9 | 0.00 | 0.09 | 0.07 | 54 | 1019.9 |
| 20260506181057 | 56 | 57 | 2.6 | 13.9 | 0.00 | 0.09 | 0.07 | 53 | 1020.0 |